FW2775 Weather Reports


time (UTC)temp
C
wind
direction
speed
KPH
gust
KPH
rain 1hr
cm
rain 24hr
cm
rain mn
cm
humidity
%
barometer
mb
20210723161616 27 18 1.6 6.4 0.00 0.00 0.00 54 1022.6
20210723160616 27 25 4.8 8.0 0.00 0.00 0.00 51 1022.7
20210723155616 27 59 3.2 8.0 0.00 0.00 0.00 50 1022.6
20210723154616 27 9 4.8 12.9 0.00 0.00 0.00 57 1022.5
20210723153616 26 20 6.4 12.9 0.00 0.00 0.00 54 1022.6
20210723152617 26 4 8.0 14.5 0.00 0.00 0.00 62 1022.7
20210723151618 26 34 3.2 8.0 0.00 0.00 0.00 66 1022.8
20210723150615 26 81 1.6 4.8 0.00 0.00 0.00 69 1022.8
20210723145617 26 353 4.8 11.3 0.00 0.00 0.00 69 1022.8
20210723144616 26 11 1.6 12.9 0.00 0.00 0.00 69 1023.1
20210723143615 25 14 1.6 3.2 0.00 0.00 0.00 72 1022.9
20210723142615 25 68 3.2 6.4 0.00 0.00 0.00 74 1022.9
20210723141617 24 352 1.6 4.8 0.00 0.00 0.00 77 1022.9
20210723140619 24 10 4.8 8.0 0.00 0.00 0.00 77 1023.0
20210723135620 23 348 3.2 9.7 0.00 0.00 0.00 78 1022.9
20210723134616 23 359 3.2 6.4 0.00 0.00 0.00 79 1023.0
20210723133617 23 4 4.8 8.0 0.00 0.00 0.00 78 1022.9
20210723132615 23 0 3.2 6.4 0.00 0.00 0.00 79 1022.9
20210723131616 22 342 6.4 11.3 0.00 0.00 0.00 80 1022.8
20210723130615 22 61 0.0 8.0 0.00 0.00 0.00 81 1022.7
20210723125615 22 355 4.8 8.0 0.00 0.00 0.00 81 1022.6
20210723124615 22 2 1.6 4.8 0.00 0.00 0.00 81 1022.5
20210723123616 22 260 0.0 4.8 0.00 0.00 0.00 82 1022.5
20210723122615 21 57 1.6 4.8 0.00 0.00 0.00 82 1022.3
20210723121617 21 46 1.6 4.8 0.00 0.00 0.00 83 1022.2
20210723120616 21 309 1.6 3.2 0.00 0.00 0.00 83 1022.1
20210723115615 21 348 6.4 9.7 0.00 0.00 0.00 82 1022.1
20210723114616 21 270 1.6 6.4 0.00 0.00 0.00 83 1022.0
20210723113615 21 327 1.6 6.4 0.00 0.00 0.00 83 1021.8
20210723112617 21 7 1.6 4.8 0.00 0.00 0.00 83 1021.6
20210723111615 20 352 1.6 4.8 0.00 0.00 0.00 84 1021.8
20210723110616 20 314 1.6 4.8 0.00 0.00 0.00 84 1021.7
20210723105617 20 337 1.6 6.4 0.00 0.00 0.00 84 1021.6
20210723104615 20 9 3.2 4.8 0.00 0.00 0.00 84 1021.4
20210723103617 20 0.0 0.0 0.00 0.00 0.00 83 1021.4
20210723102619 20 0.0 0.0 0.00 0.00 0.00 83 1021.3
20210723101617 20 19 0.0 1.6 0.00 0.00 0.00 83 1021.3
20210723100617 20 19 0.0 3.2 0.00 0.00 0.00 83 1021.1
20210723095619 20 0.0 0.0 0.00 0.00 0.00 83 1021.1
20210723094617 20 27 0.0 4.8 0.00 0.00 0.00 83 1021.0
20210723093617 20 52 1.6 3.2 0.00 0.00 0.00 83 1021.1
20210723092617 20 52 0.0 3.2 0.00 0.00 0.00 83 1021.0
20210723091617 20 63 1.6 3.2 0.00 0.00 0.00 83 1021.1
20210723090617 20 0.0 1.6 0.00 0.00 0.00 82 1021.1
20210723085619 21 62 0.0 1.6 0.00 0.00 0.00 82 1021.1
20210723084617 21 63 0.0 1.6 0.00 0.00 0.00 81 1021.2
20210723083617 21 63 1.6 3.2 0.00 0.00 0.00 81 1021.1
20210723082617 21 63 1.6 3.2 0.00 0.00 0.00 81 1021.0
20210723081617 21 63 1.6 3.2 0.00 0.00 0.00 80 1021.0
20210723080617 21 63 1.6 3.2 0.00 0.00 0.00 79 1021.0
20210723075618 21 72 1.6 4.8 0.00 0.00 0.00 79 1021.0
20210723074618 21 77 0.0 1.6 0.00 0.00 0.00 79 1021.1
20210723073618 21 77 0.0 3.2 0.00 0.00 0.00 78 1021.1
20210723072618 21 54 3.2 6.4 0.00 0.00 0.00 79 1021.1
20210723071616 21 53 1.6 4.8 0.00 0.00 0.00 79 1021.1
20210723070618 21 25 3.2 4.8 0.00 0.00 0.00 78 1021.2
20210723065617 22 31 3.2 4.8 0.00 0.00 0.00 79 1021.3
20210723064617 22 33 1.6 3.2 0.00 0.00 0.00 78 1021.5
20210723063617 22 39 1.6 3.2 0.00 0.00 0.00 78 1021.5
20210723062618 22 38 1.6 4.8 0.00 0.00 0.00 78 1021.8
20210723061621 22 20 3.2 6.4 0.00 0.00 0.00 78 1021.7
20210723060616 22 62 1.6 4.8 0.00 0.00 0.00 78 1021.8
20210723055616 22 33 1.6 3.2 0.00 0.00 0.00 78 1021.9
20210723054618 22 32 1.6 4.8 0.00 0.00 0.00 77 1022.0
20210723053616 22 0.0 0.0 0.00 0.00 0.00 77 1022.2
20210723052616 22 29 0.0 1.6 0.00 0.00 0.00 76 1022.2
20210723051618 22 29 1.6 3.2 0.00 0.00 0.00 76 1022.2
20210723050618 23 29 1.6 4.8 0.00 0.00 0.00 76 1022.3
20210723045616 23 29 0.0 3.2 0.00 0.00 0.00 75 1022.3
20210723044616 23 29 0.0 3.2 0.00 0.00 0.00 75 1022.4
20210723043616 23 1 3.2 4.8 0.00 0.00 0.00 74 1022.4
20210723042616 23 329 0.0 3.2 0.00 0.00 0.00 73 1022.3
20210723041616 23 329 0.0 1.6 0.00 0.00 0.00 73 1022.3
20210723040616 23 329 0.0 1.6 0.00 0.00 0.00 72 1022.4
20210723035615 23 329 1.6 4.8 0.00 0.00 0.00 72 1022.2
20210723034620 24 350 3.2 9.7 0.00 0.00 0.00 72 1021.9
20210723033616 24 357 3.2 6.4 0.00 0.00 0.00 71 1021.9
20210723032615 24 12 3.2 4.8 0.00 0.00 0.00 71 1021.9
20210723031615 24 27 3.2 4.8 0.00 0.00 0.00 71 1021.8
20210723030618 24 23 1.6 4.8 0.00 0.00 0.00 71 1021.8
20210723025617 24 34 1.6 4.8 0.00 0.00 0.00 70 1021.7
20210723024617 25 36 1.6 4.8 0.00 0.00 0.00 70 1021.7
20210723023617 25 37 1.6 4.8 0.00 0.00 0.00 70 1021.7
20210723022617 25 37 3.2 4.8 0.00 0.00 0.00 69 1021.5
20210723021617 25 14 3.2 6.4 0.00 0.00 0.00 69 1021.4
20210723020620 25 68 1.6 4.8 0.00 0.00 0.00 69 1021.3
20210723015617 25 72 1.6 4.8 0.00 0.00 0.00 68 1021.3
20210723014617 25 36 1.6 4.8 0.00 0.00 0.00 67 1021.2
20210723013617 25 34 1.6 6.4 0.00 0.00 0.00 67 1021.3
20210723012617 26 35 3.2 6.4 0.00 0.00 0.00 67 1021.1
20210723011618 26 39 1.6 4.8 0.00 0.00 0.00 66 1021.1
20210723010617 26 43 3.2 4.8 0.00 0.00 0.00 65 1021.0
20210723005618 26 36 1.6 6.4 0.00 0.00 0.00 64 1021.0
20210723004616 26 37 1.6 4.8 0.00 0.00 0.00 63 1020.9
20210723003617 26 42 3.2 4.8 0.00 0.00 0.00 62 1020.8
20210723002618 27 68 1.6 4.8 0.00 0.00 0.00 62 1020.8
20210723001617 27 81 1.6 6.4 0.00 0.00 0.00 61 1020.8
20210723000617 27 53 3.2 6.4 0.00 0.00 0.00 60 1020.8
20210722235618 27 71 3.2 6.4 0.00 0.00 0.00 59 1020.7
20210722234617 28 19 3.2 6.4 0.00 0.00 0.00 58 1020.7
20210722233619 28 90 1.6 4.8 0.00 0.00 0.00 57 1020.6
20210722232619 28 89 3.2 6.4 0.00 0.00 0.00 56 1020.4
20210722231617 28 92 4.8 6.4 0.00 0.00 0.00 55 1020.5
20210722230616 28 73 4.8 8.0 0.00 0.00 0.00 55 1020.5
20210722225619 28 69 3.2 6.4 0.00 0.00 0.00 55 1020.4
20210722224616 28 22 3.2 6.4 0.00 0.00 0.00 53 1020.4
20210722223619 29 23 3.2 6.4 0.00 0.00 0.00 53 1020.3
20210722222616 29 58 3.2 6.4 0.00 0.00 0.00 52 1020.3
20210722221618 29 59 1.6 3.2 0.00 0.00 0.00 50 1020.2
20210722220616 30 42 0.0 4.8 0.00 0.00 0.00 50 1020.2
20210722215618 30 136 1.6 6.4 0.00 0.00 0.00 49 1020.1
20210722214617 30 46 0.0 3.2 0.00 0.00 0.00 51 1020.1
20210722213616 29 335 3.2 4.8 0.00 0.00 0.00 51 1020.0
20210722212618 29 21 1.6 6.4 0.00 0.00 0.00 51 1019.9
20210722211616 30 26 6.4 12.9 0.00 0.00 0.00 49 1019.9
20210722210617 31 36 1.6 4.8 0.00 0.00 0.00 47 1020.0
20210722205617 31 223 0.0 3.2 0.00 0.00 0.00 49 1019.9
20210722204617 31 227 1.6 3.2 0.00 0.00 0.00 47 1020.0
20210722203616 30 238 1.6 6.4 0.00 0.00 0.00 49 1020.0
20210722202619 30 96 1.6 6.4 0.00 0.00 0.00 50 1020.0
20210722201616 29 15 3.2 4.8 0.00 0.00 0.00 52 1020.1
20210722200616 30 15 3.2 11.3 0.00 0.00 0.00 50 1020.0
20210722195616 30 159 0.0 6.4 0.00 0.00 0.00 50 1020.0
20210722194617 29 56 1.6 6.4 0.00 0.00 0.00 51 1020.1
20210722193617 30 8 6.4 11.3 0.00 0.00 0.00 50 1020.3
20210722192616 30 248 1.6 4.8 0.00 0.00 0.00 49 1020.3
20210722191618 30 303 1.6 4.8 0.00 0.00 0.00 50 1020.4
20210722190616 30 51 3.2 6.4 0.00 0.00 0.00 52 1020.4
20210722185617 29 179 1.6 8.0 0.00 0.00 0.00 51 1020.4
20210722184616 28 1 4.8 11.3 0.00 0.00 0.00 51 1020.7
20210722183616 29 359 9.7 14.5 0.00 0.00 0.00 51 1020.9
20210722182618 29 80 1.6 8.0 0.00 0.00 0.00 52 1021.0
20210722181616 29 198 0.0 6.4 0.00 0.00 0.00 52 1021.0
20210722180617 29 269 1.6 4.8 0.00 0.00 0.00 51 1021.0
20210722175621 29 284 3.2 4.8 0.00 0.00 0.00 51 1021.3
20210722174617 28 121 6.4 9.7 0.00 0.00 0.00 52 1021.4
20210722173616 29 76 4.8 8.0 0.00 0.00 0.00 52 1021.4
20210722172616 28 32 3.2 4.8 0.00 0.00 0.00 52 1021.5
20210722171616 28 34 0.0 3.2 0.00 0.00 0.00 55 1021.6
20210722170616 28 26 3.2 6.4 0.00 0.00 0.00 53 1021.6
20210722165616 28 21 3.2 8.0 0.00 0.00 0.00 55 1021.6
20210722164616 27 175 0.0 3.2 0.00 0.00 0.00 56 1021.7
20210722163617 27 78 4.8 11.3 0.00 0.00 0.00 56 1021.8
20210722162616 27 36 4.8 9.7 0.00 0.00 0.00 55 1021.8